TimeMST,TemperatureF,Dew PointF,Humidity,Sea Level PressureIn,VisibilityMPH,Wind Direction,Wind SpeedMPH,Gust SpeedMPH,PrecipitationIn,Events,Conditions,WindDirDegrees,DateUTC
12:52 AM,25.0,21.0,85,30.01,10.0,Calm,Calm,-,N/A,,Clear,0,2013-01-26 07:52:00
1:52 AM,23.0,19.9,88,29.99,10.0,East,3.5,-,N/A,,Clear,90,2013-01-26 08:52:00
2:52 AM,26.1,19.9,78,29.96,10.0,Calm,Calm,-,N/A,,Clear,0,2013-01-26 09:52:00
3:52 AM,21.9,17.1,82,29.95,10.0,Calm,Calm,-,N/A,,Clear,0,2013-01-26 10:52:00
4:52 AM,25.0,19.0,78,29.95,10.0,Calm,Calm,-,N/A,,Clear,0,2013-01-26 11:52:00
5:52 AM,24.1,18.0,77,29.96,10.0,Calm,Calm,-,N/A,,Clear,0,2013-01-26 12:52:00
6:52 AM,26.1,19.0,75,29.96,10.0,Calm,Calm,-,N/A,,Clear,0,2013-01-26 13:52:00
7:52 AM,33.1,24.1,70,29.94,10.0,NNW,11.5,-,N/A,,Clear,330,2013-01-26 14:52:00
8:52 AM,36.0,25.0,64,29.94,10.0,NW,4.6,-,N/A,,Clear,310,2013-01-26 15:52:00
9:52 AM,43.0,25.0,49,29.93,10.0,NNW,11.5,-,N/A,,Clear,340,2013-01-26 16:52:00
10:52 AM,46.0,23.0,40,29.94,10.0,NNE,11.5,-,N/A,,Clear,20,2013-01-26 17:52:00
11:52 AM,48.0,25.0,41,29.93,10.0,North,5.8,-,N/A,,Clear,350,2013-01-26 18:52:00
12:52 PM,50.0,25.0,38,29.89,10.0,NNE,8.1,-,N/A,,Clear,20,2013-01-26 19:52:00
1:52 PM,50.0,24.1,36,29.90,10.0,Calm,Calm,-,N/A,,Clear,0,2013-01-26 20:52:00
2:52 PM,51.1,24.1,35,29.88,10.0,SSE,5.8,-,N/A,,Clear,160,2013-01-26 21:52:00
3:52 PM,46.9,23.0,39,29.90,10.0,SSE,6.9,-,N/A,,Clear,160,2013-01-26 22:52:00
4:52 PM,41.0,21.9,47,29.90,10.0,SSE,5.8,-,N/A,,Clear,160,2013-01-26 23:52:00
5:52 PM,35.1,21.9,59,29.91,10.0,Calm,Calm,-,N/A,,Clear,0,2013-01-27 00:52:00
6:52 PM,30.9,21.9,69,29.91,10.0,Calm,Calm,-,N/A,,Clear,0,2013-01-27 01:52:00
7:52 PM,33.1,23.0,66,29.88,10.0,Calm,Calm,-,N/A,,Clear,0,2013-01-27 02:52:00
8:52 PM,37.0,24.1,59,29.85,10.0,SSW,3.5,-,N/A,,Clear,200,2013-01-27 03:52:00
9:52 PM,33.1,24.1,70,29.84,10.0,Calm,Calm,-,N/A,,Clear,0,2013-01-27 04:52:00
10:52 PM,33.1,24.1,70,29.83,10.0,Calm,Calm,-,N/A,,Clear,0,2013-01-27 05:52:00
11:52 PM,30.0,23.0,75,29.81,10.0,Calm,Calm,-,N/A,,Clear,0,2013-01-27 06:52:00